User: anonymous   Login
Location: Ladysmith
(45.4630°N, 91.1040°W)
Time: 04:30:15
(UTC-06:00)
Language:

SO-67 - Orbit

View from above orbital plane
View from above orbital plane
View from above satellite
View from above satellite

Ground track
Ground track

The orbit data is extracted from the following two-line orbital elements,

1 35870U 09049F   16037.89415603  .00010401  00000-0  21176-3 0  9994
2 35870  97.1263  54.7269 0003290  80.5406  37.8672 15.46436014356330
Epoch (UTC): 06 February 2016 21:27:35
Eccentricity: 0.0003290
inclination: 97.1263°
perigee height: 425 km
apogee height: 429 km
right ascension of ascending node: 54.7269°
argument of perigee: 80.5406°
revolutions per day: 15.46436014
mean anomaly at epoch: 37.8672°
orbit number at epoch: 35633

The dashed part of the orbit path shows where the satellite is in the earth's shadow,  

DLR